{"data":{"norad_id":63153,"intl_designator":"2025-009DQ","name":"SEDNA-2","alt_names":[],"object_type":"PAYLOAD","status":"ACTIVE","operator":null,"country":"US","launch_date":"2025-01-14","launch_site_code":"AFWTR","launch_vehicle":null,"mission":null,"orbit_class":"UNKNOWN","rcs_meters":null,"size_class":null,"mass_kg":null,"dimensions":null,"purposes":[],"wikipedia_slug":null,"has_3d_model":false,"image_url":null,"decayed_at":null,"tle_current":{"epoch":"2026-05-25T03:36:55.436832Z","epoch_age_seconds":52092,"freshness":"FRESH","line1":"1 63153U 25009DQ  26145.15064163  .00007699  00000+0  45704-3 0  9991","line2":"2 63153  97.4546 219.2575 0010441 137.0119 223.1929 15.11550698 74648","mean_motion":15.11550698,"eccentricity":0.0010441,"inclination_deg":97.4546,"raan_deg":219.2575,"arg_perigee_deg":137.0119,"mean_anomaly_deg":223.1929,"bstar":0.00045704,"rev_number":7464,"period_min":95.266404355827,"perigee_km":524.25593331815,"apogee_km":538.68457518648,"semimajor_km":6909.6072542523,"source":"CELESTRAK","updated_at":"2026-05-25T13:38:03.536836Z"}}}